SL-16 DEB, 24303

Orbit data source: Space-Track

SL-16 DEB, 24303 is space debris in LEO originally from a launch on Wed, 04 Sep 1996 UTC launched from the Tyuratam Missile And Space Complex (TTMTR). Debris objects in space refer to the collection of defunct objects orbiting the Earth. Examples of debris include non-operational satellites, rocket bodies, and fragments generated from explosions, collisions, or faulty payload assembly.

Loading next visibility...
Identifier
24303, 1996-051G
Orbit
LEO
Country
Flag of CISCIS
Related business
Manufacturer
Unknown
Mission
Spacecraft
Bus & Motor
Unknown
Mass
Unknown
Launch date (UTC)
1996-09-04 (30 years ago)
Launch vehicle
Unknown
Launch site
Tyuratam Missile And Space Complex (TTMTR)
Object type
Payload
Rocket body
Debris
Shape & HBR
Unknown shape, 0.5 m
Radar Cross Section
Medium (>0.1 m² and <1 m²)

Expand to show TLE details & history
Last TLE update: 2 days ago

TLE from 2 days ago
0 SL-16 DEB
1 24303U 96051G   26171.37064207  .00000223  00000-0  15332-3 0  9993
2 24303  71.1068  24.7670 0070834 347.6945 185.1745 14.08415018531117
Epoch: 2026-06-20T08:53Z
TLE epoch observation values (Epoch: 2026-06-20T08:53:43.474Z)
Latitude
6.7488°
Longitude
160.44065°
Altitude
917.684 km
Speed
7.368 km/s
True Right ascension
13h 29m 49s
True Declination
6° 42' 35"
Sunlit
Object was in daylight at epoch
Visualization orbit readout
Latitude
Unknown
Longitude
Unknown
Altitude
Unknown
Speed
Unknown
Apparent Right ascension
Unknown
Apparent Declination
Unknown
Sunlit
N/A
Visualization observer readout
Local Sidereal Time
23:20:35
Azimuth
Unknown
Elevation
Unknown
Doppler factor
Unknown
Orbital elements
Apogee altitude
914.011 km
Perigee altitude
811.431 km
Semi-major axis
7,240.858 km
Eccentricity
0.00708
Inclination
71.1068°
RAAN
24.767°
Arg. of periapsis
347.6945°
True anomaly
185.10193°
Mean anomaly
185.1745°
Eccentric anomaly
185.13815°
Mean motion
3.52256 °/min
Orbital period
102.2 mins
BSTAR
0.00015332
Loading maneuver chart data...
Computing Atmospheric mass density...
Loading historical data...
Loading historical data...
Loading historical data...
Loading historical data...
Loading historical data...
Loading historical data...
Loading historical data...

Documentation

Showing up to 5 results
|